カタログに戻る

LEMUR 2 SQUIRRELCOMM

運用中科学SSO
NORAD 60578·PAYLOAD·🇺🇸 United States

打ち上げ Aug 16, 2024 から Vandenberg Space Force Base

Loading…

次のパス (今後24時間)

TLE

最新Source: Space-Track

元期: Sep 14, 2026, 11:02 UTC

1 60578U 24149DQ  26257.45983147  .00004387  00000-0  28911-3 0  9995
2 60578  97.6656 338.1193 0006708 105.3400 254.8569 15.08007901113857

AllMySatでLEMUR 2 SQUIRRELCOMMをリアルタイム追跡

Download on the App Store